Beaufort, NC

11:01 AM EDT on October 23, 2017 (GMT -0400)
Smith

Weather History for KMRH - January, 2013

Change the Weather History Date:

Monday, January 28, 2013

  Actual Average Record
Temperature  
Mean Temperature 44 °F -  
Max Temperature 55 °F 54 °F 72 °F (1974)
Min Temperature 33 °F 33 °F 13 °F (1986)
Degree Days  
Heating Degree Days 21    
Moisture  
Dew Point 42 °F    
Average Humidity 85    
Maximum Humidity 100    
Minimum Humidity 72    
Precipitation  
Precipitation 0.00 in - - ()
Sea Level Pressure  
Sea Level Pressure 30.38 in    
Wind  
Wind Speed 5 mph (North)    
Max Wind Speed 9 mph    
Max Gust Speed -    
Visibility 8 miles    
Events Fog , Rain    
Averages and records for this station are not official NWS values.
T = Trace of Precipitation, MM = Missing Value Source: NWS Daily Summary

Daily Weather History Graph

Daily Weather History Graph

Search for Another Location

Airport or City:

Trip Planner

Search our weather history database for the weather conditions in past years. The results will help you decide how hot, cold, wet, or windy it might be!

Date:

Astronomy

Jan. 28, 2013 Rise Set
Actual Time 7:07 AM EST 5:32 PM EST
Civil Twilight 6:40 AM EST 5:58 PM EST
Nautical Twilight 6:10 AM EST 6:29 PM EST
Astronomical Twilight 5:40 AM EST 6:59 PM EST
Moon 7:17 PM EST (1/28) 7:37 AM EST (1/28)
Length of Visible Light 11h 18m
Length of Day
10h 24m
Full, 98% of the Moon is Illuminated
Jan 28
Full
Feb 3
Last Quarter
Feb 10
New
Feb 17
First Quarter
Feb 25
Full

Hourly Weather History & Observations

Time (EST) Temp. Windchill Dew Point Humidity Pressure Visibility Wind Dir Wind Speed Gust Speed Precip Events Conditions
12:40 AM 33.8 °F 30.8 °F 28.4 °F 81% 30.51 in 10.0 mi NE 3.5 mph - N/A   Scattered Clouds
12:58 AM 35.1 °F 29.3 °F 28.0 °F 76% 30.50 in 10.0 mi NE 6.9 mph - N/A   Clear
1:58 AM 35.1 °F 30.1 °F 28.9 °F 78% 30.49 in 10.0 mi NE 5.8 mph - N/A   Clear
2:58 AM 36.0 °F 30.3 °F 30.0 °F 79% 30.50 in 10.0 mi NNE 6.9 mph - N/A   Clear
3:58 AM 37.0 °F 32.4 °F 30.9 °F 79% 30.47 in 10.0 mi NNE 5.8 mph - N/A   Clear
4:58 AM 36.0 °F 31.1 °F 32.0 °F 86% 30.46 in 10.0 mi NNE 5.8 mph - N/A   Clear
5:58 AM 37.9 °F 33.5 °F 33.1 °F 83% 30.47 in 10.0 mi NNE 5.8 mph - N/A   Scattered Clouds
6:58 AM 37.0 °F 32.4 °F 33.1 °F 86% 30.47 in 10.0 mi NNE 5.8 mph - N/A   Scattered Clouds
7:58 AM 39.9 °F 35.8 °F 34.0 °F 79% 30.47 in 10.0 mi NE 5.8 mph - N/A   Mostly Cloudy
8:58 AM 41.0 °F 37.1 °F 35.1 °F 79% 30.47 in 10.0 mi NE 5.8 mph - 0.00 in Rain Light Rain
9:58 AM 41.0 °F 38.0 °F 37.9 °F 89% 30.48 in 9.0 mi North 4.6 mph - 0.00 in Rain Light Rain
10:58 AM 44.1 °F 40.8 °F 39.0 °F 82% 30.47 in 10.0 mi NE 5.8 mph - 0.00 in   Overcast
11:58 AM 48.0 °F - 41.0 °F 77% 30.44 in 10.0 mi NNE 4.6 mph - N/A   Overcast
12:58 PM 50.0 °F - 42.1 °F 74% 30.38 in 10.0 mi ENE 3.5 mph - N/A   Overcast
1:58 PM 52.0 °F - 44.1 °F 74% 30.35 in 10.0 mi Calm Calm - N/A   Overcast
2:58 PM 54.0 °F - 45.0 °F 72% 30.33 in 10.0 mi NNW 5.8 mph - N/A   Clear
3:58 PM 55.0 °F - 46.9 °F 74% 30.31 in 10.0 mi SW 4.6 mph - N/A   Partly Cloudy
4:58 PM 52.0 °F - 46.0 °F 80% 30.32 in 10.0 mi West 4.6 mph - N/A   Partly Cloudy
5:58 PM 50.0 °F - 45.0 °F 83% 30.31 in 10.0 mi Calm Calm - N/A   Overcast
6:58 PM 48.9 °F - 46.0 °F 90% 30.30 in 10.0 mi SSW 3.5 mph - N/A   Overcast
7:58 PM 50.0 °F - 46.9 °F 89% 30.31 in 10.0 mi Calm Calm - N/A   Overcast
8:58 PM 52.0 °F - 50.0 °F 93% 30.29 in 7.0 mi SW 8.1 mph - N/A   Scattered Clouds
9:58 PM 55.0 °F - 54.0 °F 96% 30.28 in 6.0 mi SW 9.2 mph - N/A   Partly Cloudy
10:44 PM 55.4 °F - 55.4 °F 100% 30.27 in 4.0 mi SW 6.9 mph - N/A   Scattered Clouds
10:56 PM 55.4 °F - 53.6 °F 94% 30.27 in 3.0 mi SW 6.9 mph - N/A   Mostly Cloudy
10:58 PM 54.0 °F - 54.0 °F 100% 30.27 in 3.0 mi SW 6.9 mph - N/A   Mostly Cloudy
11:11 PM 55.4 °F - 53.6 °F 94% 30.27 in 1.8 mi SW 6.9 mph - N/A   Overcast
11:16 PM 53.6 °F - 53.6 °F 100% 30.27 in 0.8 mi SW 6.9 mph - N/A   Mist
11:58 PM 54.0 °F - 54.0 °F 100% 30.26 in 0.5 mi SW 8.1 mph - N/A Fog Fog